Regional Weather Roundup
Issued by NWS Little Rock, AR

Home | Current Version | Previous Version | Graphics & Text | Print | Product List | Glossary On
Versions: 1 2 3 4 5 6 7 8 9 10 11 12 13 14 15 16 17 18 19 20 21 22 23 24 25 26 27 28 29 30 31 32 33 34 35 36 37 38 39 40 41 42 43 44 45 46 47 48
000
ASUS44 KLZK 240005
RWRLZK

WEATHER ROUNDUP FOR ARKANSAS
NATIONAL WEATHER SERVICE LITTLE ROCK AR
600 PM CST TUE DEC 23 2014

NOTE: "FAIR" INDICATES FEW OR NO CLOUDS BELOW 12,000 FEET WITH NO
SIGNIFICANT WEATHER AND/OR OBSTRUCTIONS TO VISIBILITY.

ARZ001-003-010-029-240100-
NORTHWEST ARKANSAS

CITY           SKY/WX    TMP DP  RH WIND       PRES   REMARKS
FAYETTEVILLE   CLOUDY    40  32  73 NW10      29.77R
6HR MIN TEMP:  40; 6HR MAX TEMP:  45;

FORT SMITH     MOCLDY    47  33  58 NW9       29.78R
6HR MIN TEMP:  46; 6HR MAX TEMP:  51;

HARRISON       FAIR      40  35  83 NW7       29.73R
6HR MIN TEMP:  40; 6HR MAX TEMP:  52;

BENTONVILLE    MOCLDY    39  30  70 N5        29.77R
6HR MIN TEMP:  39; 6HR MAX TEMP:  45;

ROGERS         MOCLDY    39  32  76 N5        29.77R
6HR MIN TEMP:  39; 6HR MAX TEMP:  44;

SILOAM SPGS    CLOUDY    39  28  65 NW17G23   29.78R
6HR MIN TEMP:  39; 6HR MAX TEMP:  45;

HIGHFILL       CLOUDY    40  33  76 NW5       29.76R
6HR MIN TEMP:  39; 6HR MAX TEMP:  45;

$$

ARZ004-005-016-240100-
NORTH CENTRAL ARKANSAS

CITY           SKY/WX    TMP DP  RH WIND       PRES   REMARKS
BATESVILLE     CLOUDY    46  39  76 W3        29.72R
6HR MIN TEMP:  46; 6HR MAX TEMP:  50;

FLIPPIN        FAIR      45  36  70 NW12      29.72R
6HR MIN TEMP:  45; 6HR MAX TEMP:  52;

MTN HOME       FAIR      44  39  82 NW6       29.72R
6HR MIN TEMP:  44; 6HR MAX TEMP:  50;

$$

ARZ040-041-240100-
WEST CENTRAL ARKANSAS

CITY           SKY/WX    TMP DP  RH WIND       PRES   REMARKS
MENA           FAIR      46  36  66 W6        29.76R
MOUNT IDA      FAIR      46  42  86 NW6       29.71R
6HR MIN TEMP:  45; 6HR MAX TEMP:  51; 6HR PCP:  0.05;

$$

ARZ009-017-025-026-028-240100-
NORTHEAST ARKANSAS

CITY           SKY/WX    TMP DP  RH WIND       PRES   REMARKS
CORNING        CLOUDY    48  41  76 N6        29.70R
JONESBORO      CLOUDY    48  44  86 NE3       29.68S
6HR MIN TEMP:  47; 6HR MAX TEMP:  50; 6HR PCP: TRACE;

NEWPORT        CLOUDY    48  44  86 NE3       29.71R
6HR MIN TEMP:  47; 6HR MAX TEMP:  49; 6HR PCP: TRACE;

WALNUT RIDGE   CLOUDY    46  41  81 N6        29.68S
6HR MIN TEMP:  46; 6HR MAX TEMP:  50; 6HR PCP:  0.01;

BLYTHEVILLE    CLOUDY    48  46  93 N9        29.68F
6HR MIN TEMP:  48; 6HR MAX TEMP:  50;

$$

ARZ022-023-033-042-044-240100-
CENTRAL ARKANSAS

CITY           SKY/WX    TMP DP  RH WIND       PRES   REMARKS
LITTLE ROCK    MOCLDY    48  41  76 NW5       29.73R
6HR MIN TEMP:  48; 6HR MAX TEMP:  51; 6HR PCP:  0.01;

N LITTLE ROCK  MOCLDY    46  44  93 NW3       29.73R
6HR MIN TEMP:  46; 6HR MAX TEMP:  49;

JACKSONVILLE   CLOUDY    47  42  84 NW3       29.72R
6HR MIN TEMP:  46; 6HR MAX TEMP:  50; 6HR PCP:  0.01;

SEARCY         CLOUDY    48  43  82 NW5       29.73R
6HR MIN TEMP:  48; 6HR MAX TEMP:  50; 6HR PCP: TRACE;

HOT SPRINGS    FAIR      46  44  93 CALM      29.74R
6HR MIN TEMP:  46; 6HR MAX TEMP:  49; 6HR PCP:  0.13;

RUSSELLVILLE   FAIR      47  41  80 W6        29.73R
6HR MIN TEMP:  47; 6HR MAX TEMP:  51;

CLINTON        CLOUDY    45  45 100 CALM      29.74R
$$

ARZ036-240100-
EAST ARKANSAS

CITY           SKY/WX    TMP DP  RH WIND       PRES   REMARKS
WEST MEMPHIS   CLOUDY    48  45  89 N7        29.68R
6HR MIN TEMP:  48; 6HR MAX TEMP:  49;

$$

ARZ050-053-066-070-073-240100-
SOUTHWEST ARKANSAS

CITY           SKY/WX    TMP DP  RH WIND       PRES   REMARKS
ARKADELPHIA    FAIR      47  47 100 CALM      29.76R
6HR MIN TEMP:  47; 6HR MAX TEMP:  51; 6HR PCP:  0.08;

CAMDEN         MOCLDY    46  43  87 MISG      29.73R
TEXARKANA      MOCLDY    48  43  82 CALM      29.77R
6HR MIN TEMP:  46; 6HR MAX TEMP:  51; 6HR PCP:  0.11;

EL DORADO      CLOUDY    47  44  90 NW6       29.73R
6HR MIN TEMP:  47; 6HR MAX TEMP:  50; 6HR PCP: TRACE;

DE QUEEN       FAIR      49  44  83 NW3       29.75R
6HR MIN TEMP:  47; 6HR MAX TEMP:  53;

$$

ARZ056-057-069-240100-
SOUTHEAST ARKANSAS

CITY           SKY/WX    TMP DP  RH WIND       PRES   REMARKS
PINE BLUFF     CLOUDY    48  43  82 N9        29.71R
6HR MIN TEMP:  48; 6HR MAX TEMP:  49;

STUTTGART      CLOUDY    48  43  81 NW8       29.71R
6HR MIN TEMP:  48; 6HR MAX TEMP:  48;

MONTICELLO     CLOUDY    50  42  74 NE10G17   29.70R
6HR MIN TEMP:  48; 6HR MAX TEMP:  50; 6HR PCP:  0.04;


$$




USA.gov is the U.S. government's official web portal to all federal, state and local government web resources and services.